Weather History for Moron de la Frontera, Spain

Change the Weather History Date:

Wednesday, February 27, 2013

  Actual Average Record
Temperature  
Mean Temperature 47 °F -  
Max Temperature 59 °F 67 °F 77 °F (1997)
Min Temperature 35 °F 46 °F 33 °F (2012)
Degree Days  
Heating Degree Days 18    
Moisture  
Dew Point 38 °F    
Average Humidity 74    
Maximum Humidity 93    
Minimum Humidity 48    
Precipitation  
Precipitation 0.00 in - - ()
Sea Level Pressure  
Sea Level Pressure 29.92 in    
Wind  
Wind Speed 3 mph ()    
Max Wind Speed 8 mph    
Max Gust Speed -    
Visibility 6.2 miles    
Events Rain    
Averages and records for this station are not official NWS values.
T = Trace of Precipitation, MM = Missing Value Source: Averaged Metar Reports

Daily Weather History Graph

Daily Weather History Graph

Search for Another Location

Airport:

Trip Planner

Search our weather history database for the weather conditions in past years. The results will help you decide how hot, cold, wet, or windy it might be!

Date:

Astronomy

Feb. 27, 2013 Rise Set
Actual Time 7:56 AM CET 7:14 PM CET
Civil Twilight 7:30 AM CET 7:40 PM CET
Nautical Twilight 6:59 AM CET 8:11 PM CET
Astronomical Twilight 6:29 AM CET 8:41 PM CET
Moon 9:16 PM CET (2/27) 8:27 AM CET (2/27)
Length of Visible Light 12h 10m
Length of Day
11h 18m
Full, 97% of the Moon is Illuminated
Feb 27
Full
Mar 4
Last Quarter
Mar 11
New
Mar 19
First Quarter
Mar 27
Full

Hourly Weather History & Observations

Time (CET) Temp. Windchill Dew Point Humidity Pressure Visibility Wind Dir Wind Speed Gust Speed Precip Events Conditions
12:00 AM 41.0 °F 38.0 °F 35.6 °F 81% 30.04 in - ESE 4.6 mph - N/A   Clear
1:00 AM 37.4 °F 33.8 °F 33.8 °F 87% 30.01 in - North 4.6 mph - N/A   Clear
2:00 AM 39.2 °F 37.0 °F 37.4 °F 93% 30.01 in - North 3.5 mph - N/A   Clear
3:00 AM 35.6 °F - 33.8 °F 93% 29.98 in - Calm Calm - N/A   Clear
4:00 AM 39.2 °F - 33.8 °F 81% 29.98 in - Variable 2.3 mph - N/A   Clear
5:00 AM 37.4 °F - 35.6 °F 93% 29.95 in - South 1.2 mph - N/A   Clear
6:00 AM 35.6 °F - 33.8 °F 93% 29.95 in - East 1.2 mph - N/A   Clear
7:00 AM 37.4 °F - 33.8 °F 87% 29.95 in - Calm Calm - N/A   Clear
8:00 AM 37.4 °F 34.9 °F 33.8 °F 87% 29.95 in - SSW 3.5 mph - N/A   Clear
9:00 AM 37.4 °F - 33.8 °F 87% 29.95 in - Calm Calm - N/A   Clear
10:00 AM 44.6 °F - 37.4 °F 76% 29.95 in - Calm Calm - N/A   Clear
11:00 AM 50.0 °F - 39.2 °F 66% 29.95 in - Variable 1.2 mph - N/A   Clear
12:00 PM 53.6 °F - 39.2 °F 58% 29.95 in 6.2 mi West 4.6 mph - N/A   Partly Cloudy
1:00 PM 55.4 °F - 39.2 °F 54% 29.92 in 6.2 mi NW 6.9 mph - N/A   Partly Cloudy
2:00 PM 57.2 °F - 39.2 °F 51% 29.89 in 6.2 mi NW 8.1 mph - N/A   Scattered Clouds
3:00 PM 59.0 °F - 39.2 °F 48% 29.86 in - Variable 2.3 mph - N/A   Clear
4:00 PM 57.2 °F - 37.4 °F 48% 29.86 in 6.2 mi Variable 1.2 mph - N/A   Mostly Cloudy
5:00 PM 57.2 °F - 39.2 °F 51% 29.86 in 6.2 mi Variable 2.3 mph - N/A   Scattered Clouds
6:00 PM 55.4 °F - 41.0 °F 58% 29.86 in 6.2 mi SSE 6.9 mph - N/A   Scattered Clouds
7:00 PM 53.6 °F - 42.8 °F 67% 29.83 in 6.2 mi SE 6.9 mph - N/A   Scattered Clouds
8:00 PM 51.8 °F - 42.8 °F 71% 29.86 in 6.2 mi South 3.5 mph - N/A   Mostly Cloudy
9:00 PM 50.0 °F - 44.6 °F 82% 29.86 in 6.2 mi North 2.3 mph - N/A   Scattered Clouds
10:00 PM 50.0 °F - 44.6 °F 82% 29.86 in 6.2 mi NE 3.5 mph - N/A Rain Light Rain
11:00 PM 46.4 °F 43.5 °F 42.8 °F 87% 29.86 in 6.2 mi East 5.8 mph - N/A   Partly Cloudy